TimeEST,TemperatureF,Dew PointF,Humidity,Sea Level PressureIn,VisibilityMPH,Wind Direction,Wind SpeedMPH,Gust SpeedMPH,PrecipitationIn,Events,Conditions,WindDirDegrees,DateUTC
12:15 AM,-13.0,-23.8,59,30.15,8.0,WSW,21.9,-,N/A,,Clear,250,2014-01-07 05:15:00
12:35 AM,-13.0,-23.8,59,30.15,8.0,WSW,18.4,26.5,N/A,,Clear,240,2014-01-07 05:35:00
12:55 AM,-13.0,-23.8,59,30.15,9.0,WSW,19.6,-,N/A,,Clear,240,2014-01-07 05:55:00
1:15 AM,-13.0,-23.8,59,30.15,9.0,WSW,19.6,-,N/A,,Clear,240,2014-01-07 06:15:00
1:35 AM,-13.0,-23.8,59,30.16,10.0,WSW,18.4,-,N/A,,Clear,240,2014-01-07 06:35:00
1:55 AM,-13.0,-23.8,59,30.16,10.0,WSW,17.3,23.0,N/A,,Clear,240,2014-01-07 06:55:00
2:15 AM,-13.0,-23.8,59,30.17,10.0,WSW,17.3,24.2,N/A,,Clear,240,2014-01-07 07:15:00
2:35 AM,-13.0,-23.8,59,30.18,10.0,WSW,16.1,24.2,N/A,,Clear,240,2014-01-07 07:35:00
2:55 AM,-13.0,-22.0,64,30.18,9.0,WSW,20.7,-,N/A,,Clear,240,2014-01-07 07:55:00
3:15 AM,-13.0,-22.0,64,30.18,10.0,WSW,18.4,25.3,N/A,,Clear,240,2014-01-07 08:15:00
3:35 AM,-13.0,-22.0,64,30.18,10.0,WSW,16.1,-,N/A,,Clear,240,2014-01-07 08:35:00
3:55 AM,-13.0,-22.0,64,30.18,10.0,WSW,17.3,23.0,N/A,,Clear,240,2014-01-07 08:55:00
4:15 AM,-13.0,-22.0,64,30.18,10.0,WSW,17.3,-,N/A,,Clear,240,2014-01-07 09:15:00
4:35 AM,-13.0,-22.0,64,30.18,10.0,WSW,17.3,24.2,N/A,,Clear,240,2014-01-07 09:35:00
4:55 AM,-13.0,-22.0,64,30.18,10.0,WSW,18.4,-,N/A,,Clear,240,2014-01-07 09:55:00
5:15 AM,-13.0,-22.0,64,30.18,10.0,WSW,16.1,23.0,N/A,,Clear,240,2014-01-07 10:15:00
5:35 AM,-13.0,-22.0,64,30.19,9.0,WSW,18.4,-,N/A,,Clear,240,2014-01-07 10:35:00
5:55 AM,-13.0,-22.0,64,30.19,9.0,WSW,18.4,25.3,N/A,,Clear,240,2014-01-07 10:55:00
6:15 AM,-13.0,-20.2,70,30.19,10.0,WSW,17.3,25.3,N/A,,Clear,240,2014-01-07 11:15:00
6:35 AM,-13.0,-20.2,70,30.20,10.0,WSW,17.3,24.2,N/A,,Clear,240,2014-01-07 11:35:00
6:55 AM,-11.2,-20.2,64,30.20,10.0,WSW,16.1,25.3,N/A,,Clear,240,2014-01-07 11:55:00
7:15 AM,-11.2,-20.2,64,30.21,10.0,SW,17.3,-,N/A,,Clear,230,2014-01-07 12:15:00
7:35 AM,-13.0,-20.2,70,30.21,10.0,SW,17.3,-,N/A,,Clear,230,2014-01-07 12:35:00
7:55 AM,-13.0,-20.2,70,30.22,10.0,SW,15.0,24.2,N/A,,Clear,230,2014-01-07 12:55:00
8:15 AM,-13.0,-20.2,70,30.22,10.0,SW,18.4,-,N/A,,Clear,230,2014-01-07 13:15:00
8:35 AM,-11.2,-20.2,64,30.23,10.0,SW,16.1,23.0,N/A,,Clear,230,2014-01-07 13:35:00
8:55 AM,-11.2,-20.2,64,30.24,9.0,SW,17.3,24.2,N/A,,Clear,230,2014-01-07 13:55:00
9:15 AM,-11.2,-20.2,64,30.24,9.0,SW,15.0,23.0,N/A,,Clear,230,2014-01-07 14:15:00
9:35 AM,-11.2,-20.2,64,30.25,9.0,WSW,18.4,28.8,N/A,,Clear,240,2014-01-07 14:35:00
9:55 AM,-9.4,-18.4,65,30.26,9.0,WSW,17.3,26.5,N/A,,Clear,240,2014-01-07 14:55:00
10:15 AM,-9.4,-18.4,65,30.28,8.0,SW,19.6,-,N/A,,Clear,230,2014-01-07 15:15:00
10:35 AM,-9.4,-18.4,65,30.29,7.0,WSW,19.6,28.8,N/A,,Clear,240,2014-01-07 15:35:00
10:55 AM,-7.6,-18.4,59,30.29,5.0,WSW,18.4,26.5,N/A,,Haze,240,2014-01-07 15:55:00
11:15 AM,-7.6,-16.6,65,30.29,7.0,WSW,19.6,26.5,N/A,,Clear,240,2014-01-07 16:15:00
11:35 AM,-7.6,-16.6,65,30.29,8.0,WSW,18.4,24.2,N/A,,Clear,240,2014-01-07 16:35:00
11:55 AM,-5.8,-16.6,60,30.27,9.0,WSW,17.3,24.2,N/A,,Clear,240,2014-01-07 16:55:00
12:15 PM,-5.8,-16.6,60,30.26,8.0,WSW,19.6,26.5,N/A,,Clear,240,2014-01-07 17:15:00
12:35 PM,-5.8,-16.6,60,30.25,8.0,SW,20.7,-,N/A,,Clear,230,2014-01-07 17:35:00
12:55 PM,-4.0,-14.8,60,30.26,9.0,WSW,20.7,-,N/A,,Clear,240,2014-01-07 17:55:00
1:15 PM,-4.0,-14.8,60,30.25,9.0,WSW,18.4,27.6,N/A,,Clear,240,2014-01-07 18:15:00
1:35 PM,-4.0,-14.8,60,30.25,10.0,WSW,19.6,-,N/A,,Clear,240,2014-01-07 18:35:00
1:55 PM,-4.0,-14.8,60,30.25,9.0,WSW,15.0,21.9,N/A,,Clear,240,2014-01-07 18:55:00
2:15 PM,-4.0,-14.8,60,30.25,10.0,WSW,16.1,24.2,N/A,,Clear,240,2014-01-07 19:15:00
2:35 PM,-2.2,-13.0,60,30.25,10.0,WSW,17.3,-,N/A,,Clear,240,2014-01-07 19:35:00
2:55 PM,-2.2,-13.0,60,30.25,10.0,WSW,17.3,24.2,N/A,,Clear,240,2014-01-07 19:55:00
3:15 PM,-2.2,-13.0,60,30.25,10.0,WSW,17.3,-,N/A,,Clear,240,2014-01-07 20:15:00
3:35 PM,-2.2,-13.0,60,30.26,10.0,SW,13.8,20.7,N/A,,Clear,230,2014-01-07 20:35:00
3:55 PM,-2.2,-11.2,66,30.27,10.0,WSW,19.6,25.3,N/A,,Clear,240,2014-01-07 20:55:00
4:15 PM,-0.4,-11.2,60,30.27,10.0,WSW,16.1,23.0,N/A,,Clear,240,2014-01-07 21:15:00
4:35 PM,-0.4,-11.2,60,30.26,10.0,SW,12.7,21.9,N/A,,Clear,230,2014-01-07 21:35:00
4:55 PM,-0.4,-11.2,60,30.26,10.0,WSW,11.5,-,N/A,,Clear,240,2014-01-07 21:55:00
5:15 PM,-0.4,-11.2,60,30.26,10.0,SW,13.8,-,N/A,,Clear,230,2014-01-07 22:15:00
5:35 PM,-2.2,-11.2,66,30.26,10.0,WSW,15.0,21.9,N/A,,Clear,240,2014-01-07 22:35:00
5:55 PM,-2.2,-11.2,66,30.26,10.0,SW,11.5,-,N/A,,Clear,230,2014-01-07 22:55:00
6:15 PM,-2.2,-11.2,66,30.27,10.0,SW,9.2,-,N/A,,Clear,220,2014-01-07 23:15:00
6:35 PM,-2.2,-11.2,66,30.28,10.0,SW,9.2,16.1,N/A,,Clear,230,2014-01-07 23:35:00
6:55 PM,-2.2,-11.2,66,30.28,10.0,WSW,10.4,-,N/A,,Clear,240,2014-01-07 23:55:00
7:15 PM,-2.2,-11.2,66,30.28,10.0,WSW,9.2,-,N/A,,Clear,240,2014-01-08 00:15:00
7:35 PM,-2.2,-11.2,66,30.29,10.0,WSW,10.4,-,N/A,,Clear,240,2014-01-08 00:35:00
7:55 PM,-2.2,-11.2,66,30.29,10.0,SW,9.2,-,N/A,,Clear,230,2014-01-08 00:55:00
8:15 PM,-2.2,-9.4,71,30.30,10.0,SW,9.2,-,N/A,,Clear,230,2014-01-08 01:15:00
8:35 PM,-2.2,-9.4,71,30.30,10.0,SW,5.8,-,N/A,,Clear,230,2014-01-08 01:35:00
8:55 PM,-2.2,-11.2,66,30.31,10.0,SW,4.6,-,N/A,,Clear,230,2014-01-08 01:55:00
9:15 PM,-2.2,-11.2,66,30.31,10.0,SW,5.8,-,N/A,,Clear,230,2014-01-08 02:15:00
9:35 PM,-2.2,-9.4,71,30.31,10.0,SW,6.9,-,N/A,,Clear,220,2014-01-08 02:35:00
9:55 PM,-2.2,-9.4,71,30.31,10.0,SW,6.9,-,N/A,,Clear,230,2014-01-08 02:55:00
10:15 PM,-2.2,-9.4,71,30.32,10.0,SW,6.9,-,N/A,,Clear,230,2014-01-08 03:15:00
10:35 PM,-0.4,-7.6,72,30.31,10.0,SW,8.1,-,N/A,,Clear,230,2014-01-08 03:35:00
10:55 PM,-0.4,-7.6,72,30.31,10.0,SW,6.9,-,N/A,,Clear,230,2014-01-08 03:55:00
11:15 PM,1.4,-5.8,72,30.32,10.0,SW,6.9,-,N/A,,Clear,230,2014-01-08 04:15:00
11:35 PM,1.4,-5.8,72,30.32,10.0,SW,6.9,-,N/A,,Clear,230,2014-01-08 04:35:00
11:55 PM,-0.4,-5.8,78,30.31,10.0,SW,6.9,-,N/A,,Clear,220,2014-01-08 04:55:00